Tracking 19575 objects as of 18-Feb-2019
HD Live streaming from Space Station
objects crossing your sky now

DICE 1

Track DICE 1 now!
10-day predictions
DICE 1 is classified as:


NORAD ID: 37851
Int'l Code: 2011-061B
Perigee: 437.4 km
Apogee: 691.6 km
Inclination: 101.7 °
Period: 95.8 minutes
Semi major axis: 6935 km
RCS: 0.0809 m2 (small)
Launch date: October 28, 2011
Source: United States (US)
Launch site: AIR FORCE WESTERN TEST RANGE (AFWTR)
aabbcc
Your satellite tracking list
Your tracking list is empty




NASA's NSSDC Master Catalog

Two Line Element Set (TLE):
1 37851U 11061B   19048.56323583  .00000607  00000-0  39551-4 0  9990
2 37851 101.7473 236.1967 0183268  96.6643 265.5462 15.03092588398185
Source of the keplerian elements: AFSPC